This is the latest recevied weather packets stored in our database for station/object HRYR. If no packets are shown the sender has not sent any weather packets the latest 10 day(s).
| Time | Temp. | Humidity | Pressure | Rain* | Wind** | Luminosity | Snow |
|---|---|---|---|---|---|---|---|
| 1787963603 | 20.56° C | 49% | 1021 hPa | - | - | - | - |
| 1787963003 | 20° C | 52% | 1021 hPa | - | - | - | - |
| 1787962403 | 20° C | 52% | 1021 hPa | - | - | - | - |
| 1787961807 | 20° C | 52% | 1021 hPa | - | - | - | - |
| 1787961204 | 21.67° C | 43% | 1021 hPa | - | - | - | - |
| 1787960603 | 21.67° C | 43% | 1021 hPa | - | - | - | - |
| 1787960004 | 21.67° C | 43% | 1021 hPa | - | - | - | - |
| 1787959403 | 20.56° C | 49% | 1021 hPa | - | - | - | - |
| 1787958804 | 20.56° C | 49% | 1021 hPa | - | - | - | - |
| 1787958203 | 20.56° C | 49% | 1021 hPa | - | - | - | - |
| 1787957602 | 21.67° C | 46% | 1021 hPa | - | - | - | - |
| 1787957001 | 21.67° C | 46% | 1021 hPa | - | - | - | - |
| 1787956403 | 21.67° C | 46% | 1021 hPa | - | - | - | - |
| 1787955806 | 22.78° C | 40% | 1022 hPa | - | - | - | - |
| 1787955203 | 22.78° C | 40% | 1022 hPa | - | - | - | - |
| 1787954604 | 22.78° C | 40% | 1022 hPa | - | - | - | - |
| 1787954004 | 23.89° C | 38% | 1022 hPa | - | - | - | - |
| 1787953403 | 23.89° C | 38% | 1022 hPa | - | - | - | - |
| 1787952803 | 23.89° C | 38% | 1022 hPa | - | - | - | - |
| 1787952201 | 22.78° C | 40% | 1022 hPa | - | - | - | - |
| 1787951608 | 22.78° C | 40% | 1022 hPa | - | - | - | - |
| 1787951002 | 22.78° C | 40% | 1022 hPa | - | - | - | - |
| 1787950402 | 23.89° C | 38% | 1022 hPa | - | - | - | - |
| 1787949799 | 23.89° C | 38% | 1022 hPa | - | - | - | - |
| 1787949203 | 23.89° C | 38% | 1022 hPa | - | - | - | - |
* Rain since midnight (hover to see other rain measurements)
** Current wind speed in m/s (hover to see current wind gust speed)